Retour au catalogue

PSN N5

ActifCommunicationsGEO
NORAD 65588·PAYLOAD·🇮🇩 Indonesia

Lancé Sep 12, 2025 depuis Cape Canaveral Space Force Station

Loading…

TLE

FraisSource: Space-Track

Époque: Sep 14, 2026, 14:20 UTC

1 65588U 25205A   26257.59746110 -.00000366  00000-0  00000-0 0  9997
2 65588   0.0143 357.3704 0000431 252.6516  71.4897  1.00273132  3611

Suivez PSN N5 en temps réel avec AllMySat

Download on the App Store